User: anonymous   Login
Location: Pian di Sc�
(43.6333°N, 11.5500°E)
Time: 06:48:22
(UTC+00:00)
Language:

Cosmos 2298 Rocket - Orbit

View from above orbital plane
View from above orbital plane
View from above satellite
View from above satellite

Ground track
Ground track

The orbit data is extracted from the following two-line orbital elements,

1 23432U 94083B   20299.96659709 +.00000012 +00000-0 +13664-4 0  9998
2 23432 074.0334 214.4985 0004449 135.6756 296.4890 14.33543886351893
Epoch (UTC): 25 October 2020 23:11:53
Eccentricity: 0.0004449
inclination: 74.0334°
perigee height: 777 km
apogee height: 783 km
right ascension of ascending node: 214.4985°
argument of perigee: 135.6756°
revolutions per day: 14.33543886
mean anomaly at epoch: 296.4890°
orbit number at epoch: 35189

The dashed part of the orbit path shows where the satellite is in the earth's shadow,  

DLR